GFSGBSN_700_rhum_210.txt.gz
RH
20 18 20 26 25 29 34 35 28 22 17 17 17 18 21 25 37 50 57 66 88 90 81 92 94 83 77 76 70 72 64 74 73 65 50 33 55 68 76 61 49 40 30 25 22 13 20
15 18 21 28 33 34 30 23 16 14 16 29 27 25 27 30 33 37 45 58 81 79 88 97 78 85 98 93 82 72 72 76 72 64 50 37 56 52 64 55 44 38 32 24 18 12 11
16 25 30 31 28 24 22 16 14 32 32 29 48 38 37 48 50 51 48 56 72 87 87 87 83 98 95 97 69 67 64 57 53 50 42 43 38 35 49 46 35 29 24 22 16 10 10
16 21 27 27 22 19 17 14 14 30 35 35 52 52 52 50 51 54 57 66 62 66 64 95 95 93 98 94 71 71 67 50 44 44 43 35 30 34 37 36 30 20 19 14 16 10 9
18 18 19 22 20 18 16 15 12 18 25 31 44 54 55 51 49 50 60 64 60 60 88 90 95 97 96 92 78 57 58 53 43 41 39 42 33 40 39 30 29 18 20 17 14 11 9
19 20 22 23 19 19 18 17 16 14 16 18 27 40 45 45 51 53 58 48 50 70 88 85 97 96 90 91 74 48 50 53 49 47 54 50 46 42 41 29 28 21 18 16 13 14 9
21 21 20 20 22 19 18 20 20 20 21 21 22 28 30 34 46 58 61 50 62 75 74 78 77 67 84 75 80 53 42 47 49 56 55 52 48 41 35 30 37 25 18 15 13 13 15
17 19 20 19 19 19 18 18 19 21 22 24 27 29 31 46 48 54 64 58 56 62 68 77 75 70 70 75 67 64 50 44 47 53 49 47 40 34 34 31 29 18 16 15 16 17 19
17 16 16 17 17 17 17 17 18 19 21 23 25 25 29 56 48 57 66 72 64 62 73 67 71 73 79 80 60 68 64 44 39 47 45 41 31 27 29 28 24 21 18 18 19 21 24
6 7 8 10 11 14 15 16 17 18 19 21 22 24 22 22 46 50 66 76 85 89 72 70 83 79 81 88 86 80 80 52 39 41 35 33 34 28 27 27 25 22 21 22 28 33 22
18 18 18 17 15 12 10 8 8 14 18 20 20 21 22 22 19 50 48 67 74 43 61 46 68 71 72 77 81 97 90 85 70 44 41 34 29 28 26 28 31 29 32 30 28 23 17
13 10 9 10 11 12 14 16 13 8 7 10 15 18 20 20 21 20 32 41 36 29 43 33 49 51 62 63 57 61 62 78 83 63 64 39 31 26 24 24 21 22 21 19 17 16 33
9 10 11 12 13 13 13 12 13 14 13 12 11 9 8 7 7 8 9 12 19 44 30 29 36 56 55 40 46 41 56 68 68 59 56 56 40 32 29 26 23 23 21 18 40 46 49
9 10 11 12 15 16 16 14 14 14 14 14 13 14 13 12 12 16 25 20 36 22 26 28 31 34 35 34 31 42 48 60 58 56 43 42 43 42 36 24 22 22 18 20 39 46 52
8 9 10 13 16 19 21 19 16 16 18 17 17 16 14 13 12 17 25 20 18 22 23 24 24 24 23 24 28 30 36 48 50 48 44 27 24 28 34 28 23 23 21 18 17 26 29
7 7 8 12 16 21 24 25 20 18 20 19 19 18 17 16 14 13 14 16 17 19 20 20 20 21 20 19 21 22 28 29 28 26 21 18 19 21 22 25 21 20 17 18 16 19 30
6 5 6 9 13 18 25 27 29 25 22 21 20 19 19 15 16 15 14 14 15 15 14 12 16 19 19 17 17 17 18 15 20 17 17 17 17 19 18 18 16 18 17 14 14 13 54
4 5 5 7 9 12 16 21 26 25 22 20 16 18 17 18 13 15 16 16 17 16 17 16 16 15 13 11 13 13 12 9 10 10 8 12 13 9 9 10 11 12 14 17 15 20 25
4 4 4 5 6 8 10 11 13 14 14 12 10 10 14 15 13 11 13 15 17 18 18 17 16 18 18 19 20 20 20 23 24 22 21 19 14 16 22 28 26 24 20 19 16 16 20
5 4 4 4 5 6 6 8 8 9 9 9 9 9 9 10 12 11 9 12 13 16 18 20 19 19 20 20 21 21 20 21 23 23 25 25 23 20 18 18 20 22 23 25 30 31 26
6 5 5 5 5 5 5 6 6 7 8 8 8 9 9 10 10 12 10 9 10 12 13 15 18 20 22 22 21 20 24 26 26 26 26 26 25 22 22 26 28 29 29 28 28 25 32
7 7 6 6 6 5 5 5 6 6 8 8 10 8 8 9 9 9 9 10 9 10 11 12 14 16 20 24 25 28 29 29 30 29 33 36 36 36 34 32 36 40 34 34 35 34 36
10 10 10 10 9 9 8 8 8 10 10 11 14 15 14 10 10 10 10 10 10 11 12 12 15 18 20 23 26 28 30 29 29 30 34 37 38 41 43 39 47 52 23 28 34 38 41
39 32 25 17 15 15 16 18 16 14 18 21 21 22 23 19 16 15 15 14 17 18 19 20 23 24 22 26 28 28 29 30 31 31 36 38 39 51 53 54 74 33 39 38 38 37 40
61 69 63 49 33 32 26 23 27 28 28 32 35 35 36 34 27 24 25 27 26 27 27 26 27 28 32 33 37 38 38 36 24 22 23 30 47 60 59 65 49 47 41 38 42 43 41
95 96 85 71 62 49 41 43 38 33 36 39 42 44 46 49 40 35 33 36 37 38 38 38 39 41 43 45 47 55 48 37 36 42 34 34 40 67 73 76 83 54 47 45 48 58 51
95 93 87 90 95 88 84 75 62 52 41 36 40 42 51 53 51 48 48 47 46 44 46 43 40 38 42 48 53 62 60 56 53 48 49 50 51 61 70 80 64 61 58 56 67 59 56
95 96 96 93 94 95 95 94 91 90 83 72 65 58 47 48 49 53 50 50 50 46 47 51 53 53 56 62 71 67 66 65 68 68 66 65 64 70 80 93 86 70 71 73 70 70 75
26 80 94 95 93 95 95 95 96 95 95 96 96 90 89 81 79 68 62 69 74 70 68 71 77 86 77 85 89 84 80 82 82 84 76 77 72 70 72 72 70 76 81 78 79 86 96

GFSGBSN_700_rhum_213.txt.gz
RH
17 19 23 24 33 34 29 21 27 30 29 38 44 31 30 32 31 36 50 60 75 60 98 76 87 85 77 71 58 65 55 58 82 76 71 51 35 39 68 76 65 54 44 38 31 27 20
22 28 31 28 31 28 23 16 28 31 32 41 49 42 46 49 54 45 45 65 73 80 76 88 94 79 78 80 80 75 71 68 79 76 77 61 39 48 62 74 62 52 45 36 29 25 20
20 26 28 28 28 25 20 15 18 32 34 37 45 57 55 48 52 57 55 69 73 68 65 78 84 80 94 88 75 70 66 69 70 76 74 63 44 51 52 60 70 43 43 38 28 24 18
16 19 21 24 26 24 20 16 12 23 31 27 38 47 50 51 49 57 64 64 66 64 72 97 88 87 96 86 75 72 67 61 63 63 62 55 49 43 47 50 50 32 29 26 28 24 18
18 19 21 20 19 22 25 23 18 14 14 14 18 29 38 43 54 57 55 58 60 63 76 93 95 90 91 88 76 62 61 61 50 50 52 52 45 42 46 44 41 27 27 26 22 23 20
20 21 22 23 22 19 20 21 20 20 19 19 21 27 34 36 54 58 52 45 60 72 90 90 92 90 92 91 84 74 51 55 52 50 49 48 48 46 46 41 36 35 30 24 24 20 16
22 21 21 21 20 20 19 19 19 21 21 22 25 27 35 46 53 58 52 45 66 74 80 87 88 94 94 85 89 83 50 54 58 55 54 59 51 46 43 40 39 37 34 26 20 18 17
17 18 19 19 19 19 18 18 18 20 21 22 24 24 29 44 50 58 57 56 54 69 78 81 83 86 85 79 90 91 67 56 56 60 66 61 55 45 43 38 32 30 27 22 18 17 15
15 16 16 16 16 16 17 18 18 18 19 22 23 24 23 26 39 48 62 59 64 62 83 79 83 96 94 82 76 72 69 51 56 60 63 54 49 44 42 39 34 33 26 21 17 16 16
6 6 7 8 9 9 9 9 12 16 19 19 22 23 23 21 25 37 53 74 80 86 51 73 82 86 86 85 64 63 58 50 48 54 50 46 38 38 37 36 36 33 24 20 20 21 29
18 18 17 16 14 14 14 14 12 8 8 14 19 21 22 22 23 20 40 56 75 54 55 37 68 80 73 88 83 58 67 66 47 43 44 39 34 35 32 32 32 27 24 24 28 30 28
12 9 9 10 11 12 12 12 13 13 12 10 8 8 8 11 13 19 20 47 60 37 43 33 48 50 65 58 66 74 64 67 50 48 48 42 36 50 31 31 29 28 31 30 27 21 39
9 9 10 12 13 15 15 14 14 14 13 13 13 14 13 11 8 8 12 15 19 23 27 31 37 59 56 44 54 78 76 67 67 57 52 39 48 34 28 26 25 24 22 24 47 48 51
9 9 10 11 14 17 19 18 15 16 16 16 16 14 14 13 15 17 18 17 29 23 24 29 34 44 38 39 37 42 61 76 77 66 56 45 46 34 31 28 26 25 22 30 58 61 53
8 8 9 11 14 19 22 24 19 18 19 19 18 17 16 15 14 19 24 20 18 22 23 22 24 26 28 27 32 40 46 46 62 70 51 39 36 40 40 34 29 28 25 24 21 26 30
7 7 7 9 12 18 23 26 28 24 21 21 20 20 16 14 15 15 18 17 18 20 21 20 19 20 20 21 25 30 41 47 52 51 41 28 25 25 25 30 31 29 26 21 18 28 35
6 6 6 7 10 14 20 25 28 28 25 22 21 20 19 18 13 14 15 15 16 15 15 14 17 20 19 17 19 21 30 25 42 33 23 20 20 20 20 21 22 25 24 19 15 13 52
5 5 5 6 7 11 14 17 21 24 23 20 18 17 18 15 16 10 13 14 15 17 16 16 15 12 13 14 16 14 14 12 20 16 15 17 16 14 15 15 15 17 20 18 15 19 20
5 5 5 5 6 6 8 11 13 14 15 16 14 12 12 12 14 10 9 11 12 14 15 18 17 18 19 18 16 13 10 10 9 10 14 12 12 14 19 18 18 18 15 14 15 16 15
6 5 5 5 5 5 6 7 8 10 11 12 12 11 10 9 11 11 10 9 9 12 14 14 15 18 20 19 18 20 20 21 23 24 23 21 19 17 17 18 20 23 22 24 25 24 22
8 7 6 6 5 5 5 6 6 7 9 11 13 13 11 11 11 12 14 12 9 9 11 11 15 16 17 21 23 22 21 23 24 24 24 25 23 22 21 23 25 26 24 26 30 23 32
12 11 9 8 8 7 7 6 7 7 8 11 16 15 14 13 13 13 14 11 10 10 10 10 11 16 20 21 21 21 23 24 27 26 27 30 31 30 29 29 31 33 20 28 25 28 34
68 42 26 19 14 12 10 9 10 11 13 16 19 23 24 18 16 16 13 13 14 14 15 14 13 15 21 24 27 28 28 28 30 32 34 35 36 39 41 38 47 51 12 16 22 26 32
94 95 90 70 55 32 23 21 17 17 17 24 27 30 31 28 23 20 22 18 19 21 20 17 20 23 23 27 31 32 32 33 34 36 39 39 41 48 49 48 70 24 26 29 32 34 35
97 94 91 91 90 71 56 39 42 35 26 30 32 38 42 41 32 27 26 28 26 27 29 28 31 32 34 35 38 38 34 33 26 26 27 29 39 53 52 52 37 32 32 35 39 42 43
73 68 64 67 76 84 94 81 68 57 46 36 42 43 50 55 42 37 34 36 35 34 33 31 32 36 40 48 48 54 48 37 36 33 25 26 33 56 71 68 78 45 49 49 46 50 46
5 7 47 93 92 84 83 92 96 91 81 69 59 56 53 46 50 55 49 45 45 44 48 44 41 44 47 48 51 59 57 49 44 38 37 35 39 50 64 72 54 54 58 59 66 60 59
10 6 7 11 51 90 88 79 85 94 95 96 93 87 87 78 64 56 48 50 52 50 54 58 58 56 54 56 62 60 56 50 52 50 45 44 49 57 72 88 80 66 71 77 72 74 78
10 8 9 14 24 59 81 88 84 84 93 95 96 96 96 93 95 98 83 64 69 65 67 69 74 75 71 71 74 69 62 61 60 69 68 69 66 73 90 90 78 78 82 81 81 85 98

GFSGBSN_700_rhum_219.txt.gz
RH
25 29 28 28 27 24 20 17 16 24 29 31 22 32 39 50 51 49 46 61 60 64 63 80 82 60 71 71 68 66 66 54 48 59 72 50 46 39 62 55 62 67 58 51 44 46 39
24 28 28 28 26 23 20 19 15 17 28 28 16 28 37 50 50 53 57 55 59 60 66 76 81 77 70 76 80 69 64 60 49 47 68 72 54 64 67 53 57 61 57 50 54 49 44
16 22 24 26 25 24 22 20 18 15 14 16 16 27 36 48 49 48 52 57 64 82 88 90 84 73 68 74 81 72 64 60 58 46 56 79 77 75 63 58 56 57 59 59 58 49 44
15 16 18 20 20 20 22 24 22 19 20 19 20 27 35 45 51 44 45 54 70 74 83 87 73 75 80 82 74 73 75 70 65 54 74 82 84 76 81 64 57 55 54 56 51 51 44
20 18 20 23 23 22 20 19 19 20 21 21 24 28 36 41 51 46 44 53 61 71 78 80 77 83 85 75 74 69 68 65 70 74 81 81 82 74 62 64 52 52 48 51 45 46 38
23 22 22 22 22 21 20 20 19 20 21 23 25 26 35 35 48 50 44 47 55 60 66 76 80 91 83 85 75 69 59 66 68 70 74 77 74 77 77 63 56 46 40 43 44 41 39
15 17 19 19 18 17 17 17 17 17 19 22 24 24 27 40 38 47 52 47 54 59 62 73 83 83 90 85 86 81 62 60 68 68 74 71 84 77 63 55 52 42 40 36 40 39 38
15 16 15 15 14 13 12 11 12 14 17 18 21 23 24 24 29 39 52 52 52 61 61 73 78 83 91 89 93 81 67 72 71 76 87 91 80 66 59 57 58 51 41 37 37 36 34
6 8 8 8 8 10 11 12 12 9 9 13 18 20 22 23 22 30 46 61 62 70 73 59 62 79 86 98 89 90 78 86 84 86 86 87 71 61 59 61 56 46 42 37 36 32 27
12 12 13 16 15 13 12 12 13 14 12 9 8 12 17 22 21 22 36 57 72 82 54 56 57 74 76 76 93 95 92 87 82 88 78 98 66 58 58 57 52 47 40 39 37 35 36
26 24 20 13 11 11 11 12 12 13 14 13 13 12 10 10 13 20 23 40 67 82 74 41 41 62 79 74 89 98 94 81 79 75 79 75 60 49 50 55 50 51 41 32 30 30 38
22 18 13 10 10 12 14 15 15 14 14 14 14 14 14 13 11 11 17 22 52 68 68 31 35 55 53 55 68 97 94 75 58 70 65 54 51 48 49 47 45 43 38 34 28 40 50
15 13 11 10 10 12 15 18 19 17 16 16 17 16 16 14 14 13 9 18 43 62 28 32 33 44 58 52 69 91 88 62 62 63 61 45 42 39 40 39 39 38 35 43 66 70 40
12 11 10 9 9 10 14 18 23 21 19 18 18 18 17 16 15 17 13 18 40 28 33 23 33 51 52 41 65 74 77 74 57 59 56 58 54 45 42 36 36 36 33 48 91 55 42
10 10 9 8 8 9 11 16 22 26 24 22 21 20 20 18 17 20 18 28 29 27 21 23 28 38 37 35 56 67 67 74 64 51 63 49 54 46 44 32 32 36 33 30 26 31 44
8 8 8 7 7 8 9 12 16 24 28 26 23 22 22 22 19 20 22 21 19 15 18 22 24 24 26 29 40 58 57 60 64 52 53 50 61 50 42 33 30 31 31 31 24 89 78
8 7 7 6 6 6 7 8 12 17 23 27 26 23 23 24 23 22 21 18 15 16 15 16 16 21 24 23 31 52 54 49 52 60 59 52 36 52 47 41 36 34 33 30 39 35 70
8 7 7 6 6 6 6 6 7 11 15 19 22 25 27 24 25 23 21 17 13 14 16 16 16 16 19 24 21 36 47 50 52 56 57 58 30 34 42 36 37 39 37 35 38 43 21
10 8 8 7 7 7 6 6 6 6 9 13 16 19 21 21 25 22 20 19 17 14 15 16 17 16 15 16 19 19 23 32 38 46 43 46 25 32 23 24 22 24 24 28 32 32 26
95 64 18 13 10 9 7 7 6 6 7 8 11 18 17 19 17 18 20 19 17 14 12 14 16 17 18 18 14 17 17 14 18 19 37 16 23 23 26 33 28 19 16 18 23 25 27
95 95 95 92 42 33 24 12 9 8 8 9 10 23 18 23 23 20 22 26 22 17 15 14 14 12 15 19 20 19 18 15 12 11 20 14 17 17 13 16 18 22 21 20 18 16 23
47 56 60 73 94 95 86 71 52 18 14 16 19 18 18 19 26 26 26 21 19 22 21 16 15 13 15 16 17 20 20 22 22 22 17 17 30 25 26 24 25 24 22 22 21 23 22
3 3 3 4 27 50 72 90 83 72 58 46 32 32 34 26 26 23 26 28 21 24 23 23 19 21 18 14 19 21 23 23 24 25 26 28 30 32 36 36 32 26 13 14 12 10 11
3 3 3 2 2 3 4 19 49 74 84 94 79 75 60 47 57 51 43 31 30 30 31 26 25 26 21 21 22 24 24 26 28 27 29 32 32 40 38 49 42 21 16 16 16 13 23
3 3 3 3 2 2 3 3 3 4 4 28 71 93 94 89 76 70 63 40 34 36 36 37 34 35 35 31 32 33 34 35 31 29 31 32 35 40 42 45 30 32 16 12 14 13 17
4 4 4 3 3 3 3 3 4 5 6 6 19 64 94 96 82 89 63 44 38 52 58 39 39 39 41 42 42 47 44 36 34 32 30 32 37 46 47 52 40 22 22 23 22 28 19
5 4 4 4 5 6 9 10 10 10 8 8 9 33 74 98 92 98 97 77 63 47 58 61 52 47 52 59 59 58 49 43 42 35 30 39 56 53 58 58 46 38 31 30 39 26 31
10 11 10 9 12 16 18 16 19 76 72 31 26 29 61 66 63 97 98 97 88 85 74 74 66 60 63 66 73 66 59 49 49 41 38 32 38 59 73 66 62 41 37 41 35 37 44
96 91 68 40 32 30 25 52 50 69 89 96 90 78 75 69 65 89 90 95 97 97 95 84 78 75 82 77 78 72 63 58 56 52 48 54 40 38 40 40 34 36 38 44 53 60 64

GFSGBSN_700_rhum_225.txt.gz
RH
18 24 27 27 26 25 23 22 21 21 20 18 16 17 24 33 39 39 44 50 54 59 65 70 64 70 71 65 75 72 66 62 51 50 53 55 51 52 37 22 43 52 57 55 64 60 59
12 20 24 26 27 26 25 24 24 26 23 19 19 20 23 27 41 38 44 52 56 57 58 60 67 66 61 61 70 62 57 55 54 53 53 57 52 63 54 40 42 63 45 58 60 69 64
21 13 16 20 20 21 21 22 22 21 20 19 20 21 23 26 40 40 42 48 58 60 60 62 64 61 64 64 69 67 64 59 60 55 52 62 79 71 69 50 61 52 61 58 66 71 64
19 22 16 15 17 21 23 23 23 22 20 19 20 21 22 23 26 36 42 44 51 55 55 66 68 73 68 68 68 70 70 68 65 59 53 54 78 78 74 70 57 59 61 57 62 63 59
14 17 23 20 19 21 23 23 21 19 18 17 19 21 22 23 24 26 30 44 45 49 52 56 64 68 74 69 65 71 69 67 68 63 59 52 52 69 70 73 53 62 57 57 53 60 51
10 15 15 22 23 23 21 18 15 15 15 16 16 18 21 23 23 23 26 32 42 47 51 54 61 64 81 79 79 71 74 70 66 66 68 61 64 69 72 80 56 57 56 57 57 58 58
8 8 16 15 15 15 15 14 12 10 10 11 14 17 18 21 23 23 22 29 36 47 43 48 52 55 76 75 81 86 75 72 63 65 70 73 80 79 70 71 57 60 60 59 57 57 55
12 8 6 11 14 13 11 10 12 13 12 11 10 11 16 18 21 23 22 22 43 40 33 43 51 51 61 74 87 88 90 80 70 62 70 82 80 77 78 78 72 55 61 58 52 49 50
17 13 9 7 8 9 12 15 14 13 13 14 14 11 9 11 16 20 22 22 36 48 45 37 46 41 47 61 83 90 95 96 84 67 72 78 77 76 77 81 81 66 54 56 54 50 44
27 23 19 17 16 18 17 13 12 12 14 14 14 14 13 11 12 15 20 20 24 32 52 48 48 44 47 65 79 78 88 93 98 79 83 93 86 85 94 90 80 67 63 58 55 50 46
33 32 29 26 23 18 13 11 12 14 17 17 15 15 15 15 14 12 14 16 21 25 78 49 41 34 42 56 65 67 93 100 89 84 96 84 85 84 91 82 77 68 61 56 42 44 45
32 25 22 20 17 14 11 10 11 14 18 21 18 18 18 17 16 15 13 14 20 44 77 44 36 31 43 53 59 62 92 90 88 86 89 80 79 83 83 81 76 63 57 57 52 42 54
35 26 18 16 15 13 11 10 10 12 16 22 24 20 20 21 19 18 14 14 24 60 37 33 28 29 43 53 55 78 81 83 78 84 84 83 80 91 76 72 68 58 55 54 66 71 71
36 30 20 15 13 11 11 10 9 9 12 18 25 27 24 24 25 22 18 16 26 19 22 27 34 32 36 50 53 81 84 87 84 74 80 83 65 60 61 67 62 54 54 49 77 89 68
34 26 20 15 12 10 9 9 9 8 9 12 18 26 28 28 29 29 23 17 13 21 28 31 22 28 33 48 49 64 82 69 66 71 77 74 60 54 52 61 57 54 53 52 46 49 62
28 22 17 16 14 12 9 8 8 7 7 8 11 17 25 30 30 37 31 22 18 17 22 25 23 22 28 31 42 55 69 55 59 66 71 78 69 62 50 56 52 48 49 50 51 52 73
90 81 53 22 14 11 11 9 8 7 7 7 7 9 13 24 34 43 37 29 25 22 21 27 19 21 24 34 36 37 56 52 55 56 76 72 76 69 58 48 49 49 45 43 46 51 79
73 80 78 93 94 92 65 22 11 9 8 8 8 8 16 24 45 47 38 31 30 29 29 30 21 19 20 22 31 35 37 51 54 54 57 63 56 48 51 52 45 42 39 39 40 43 40
3 4 6 11 26 39 58 80 94 86 26 16 12 11 11 13 37 39 41 42 43 36 33 36 32 24 19 20 30 25 23 29 51 51 59 59 61 51 44 51 53 48 38 35 36 38 32
2 2 2 2 2 2 2 2 7 30 60 93 91 58 40 54 40 44 39 35 42 52 54 49 34 26 23 20 19 19 20 23 26 50 46 52 56 56 50 37 36 43 44 38 36 38 41
5 5 4 3 3 2 2 2 2 2 6 54 67 92 92 70 87 98 92 94 72 62 56 49 41 31 27 26 21 20 19 19 20 24 28 45 46 49 53 47 31 29 28 32 42 38 38
8 7 6 6 5 4 3 3 3 3 2 2 9 78 77 91 77 69 83 71 67 50 56 51 47 32 39 35 26 24 30 28 21 20 20 26 36 36 36 37 31 29 26 21 21 22 34
8 8 7 7 6 6 6 5 5 4 4 3 3 4 26 44 49 88 82 52 76 78 67 66 67 62 52 40 37 36 34 33 36 28 27 21 21 28 28 28 27 32 22 17 16 16 17
5 6 6 7 7 7 6 6 6 5 5 4 4 4 5 9 14 34 91 99 87 66 84 76 70 69 56 53 49 44 39 34 38 34 33 37 24 25 28 47 57 21 22 20 20 17 17
3 3 4 5 6 7 7 7 6 6 6 6 5 6 8 7 7 8 36 93 60 74 91 87 84 79 67 52 51 52 48 43 40 36 35 35 37 30 33 52 28 31 26 22 20 15 15
6 15 20 25 28 27 21 19 21 22 38 76 59 42 30 20 9 30 34 47 62 92 69 58 82 76 75 85 77 66 54 40 34 37 37 38 40 36 46 45 58 26 22 23 22 23 15
29 89 88 83 68 73 79 78 61 80 83 87 97 93 94 77 26 35 41 53 66 86 98 97 96 87 90 90 95 83 67 53 45 44 39 52 56 48 48 43 35 31 26 25 33 22 15
11 52 82 89 60 57 72 76 55 41 88 99 99 96 97 97 67 61 56 57 64 73 82 69 97 98 98 95 96 86 77 62 53 45 40 37 49 59 63 60 58 41 36 32 25 25 24
23 17 60 91 86 50 38 36 52 58 43 100 97 97 99 98 94 84 70 58 66 71 67 56 74 96 97 97 93 94 86 70 60 55 50 50 43 39 40 42 40 39 43 40 36 33 33